Chicago Midway, IL

8:17 PM CST on December 06, 2019 (GMT -0600)
Chicago-Midway

Weather History for KMDW - October, 2019

Change the Weather History Date:

Thursday, October 10, 2019

  Actual Average Record
Temperature  
Mean Temperature 63 °F 56 °F  
Max Temperature 71 °F 65 °F 87 °F (1938)
Min Temperature 54 °F 48 °F 27 °F (1964)
Degree Days  
Heating Degree Days 2 9  
Month to date heating degree days 42 79  
Since 1 July heating degree days 43 161  
Cooling Degree Days 0 1  
Month to date cooling degree days 21 10  
Year to date cooling degree days 1131 1039  
Growing Degree Days 13 (Base 50)    
Moisture  
Dew Point 55 °F    
Average Humidity 72    
Maximum Humidity 87    
Minimum Humidity 56    
Precipitation  
Precipitation 0.10 in 0.10 in 3.94 in (1954)
Month to date precipitation 0.97 1.00  
Year to date precipitation 38.79 30.86  
Sea Level Pressure  
Sea Level Pressure 30.02 in    
Wind  
Wind Speed 9 mph (SE)    
Max Wind Speed 16 mph    
Max Gust Speed 24 mph    
Visibility 10 miles    
Events Rain    
T = Trace of Precipitation, MM = Missing Value Source: NWS Daily Summary

Daily Weather History Graph

Daily Weather History Graph

Search for Another Location

Airport or City:

Astronomy

Oct. 10, 2019 Rise Set
Actual Time 6:57 AM CDT 6:17 PM CDT
Civil Twilight 6:29 AM CDT 6:45 PM CDT
Nautical Twilight 5:57 AM CDT 7:17 PM CDT
Astronomical Twilight 5:24 AM CDT 7:50 PM CDT
Moon 5:22 PM CDT (10/10) 3:36 AM CDT (10/10)
Length of Visible Light 12h 16m
Length of Day
11h 20m
Waxing Gibbous, 91% of the Moon is Illuminated
Oct 10
Waxing Gibbous
Oct 13
Full
Oct 21
Last Quarter
Oct 27
New
Nov 4
First Quarter

Hourly Weather History & Observations

Time (CDT) Temp. Dew Point Humidity Pressure Visibility Wind Dir Wind Speed Gust Speed Precip Events Conditions
12:53 AM 61.0 °F 45.0 °F 56% 30.07 in 10.0 mi SE 10.4 mph - N/A   Overcast
1:53 AM 60.1 °F 46.0 °F 60% 30.08 in 10.0 mi SE 5.8 mph - N/A   Overcast
2:53 AM 59.0 °F 46.9 °F 64% 30.09 in 10.0 mi SE 3.5 mph - N/A   Overcast
3:53 AM 57.9 °F 46.9 °F 67% 30.08 in 10.0 mi SE 9.2 mph - N/A   Overcast
4:53 AM 57.0 °F 48.0 °F 72% 30.09 in 10.0 mi SSE 5.8 mph - N/A   Mostly Cloudy
5:53 AM 55.9 °F 48.0 °F 75% 30.09 in 10.0 mi SE 5.8 mph - N/A   Scattered Clouds
6:53 AM 55.0 °F 48.9 °F 80% 30.06 in 10.0 mi ESE 6.9 mph - N/A   Partly Cloudy
7:53 AM 55.9 °F 50.0 °F 80% 30.07 in 10.0 mi SE 9.2 mph - N/A   Scattered Clouds
8:00 AM 55.9 °F 50.0 °F 80% 30.08 in 10.0 mi SE 11.5 mph - N/A   Overcast
8:37 AM 57.9 °F 53.1 °F 84% 30.09 in 8.0 mi SSE 9.2 mph 20.7 mph N/A   Scattered Clouds
8:53 AM 59.0 °F 54.0 °F 83% 30.09 in 8.0 mi SE 9.2 mph - N/A   Mostly Cloudy
9:53 AM 62.1 °F 55.0 °F 78% 30.08 in 10.0 mi South 6.9 mph - N/A   Mostly Cloudy
10:53 AM 64.0 °F 55.0 °F 73% 30.09 in 10.0 mi South 6.9 mph - N/A   Mostly Cloudy
11:53 AM 66.0 °F 57.0 °F 73% 30.06 in 10.0 mi SE 9.2 mph - N/A   Mostly Cloudy
12:53 PM 69.1 °F 57.9 °F 68% 30.04 in 10.0 mi SSE 8.1 mph - N/A   Overcast
1:53 PM 70.0 °F 57.9 °F 65% 30.00 in 10.0 mi SE 8.1 mph 18.4 mph N/A   Overcast
2:53 PM 71.1 °F 59.0 °F 66% 29.97 in 10.0 mi SE 10.4 mph - N/A   Overcast
3:53 PM 70.0 °F 59.0 °F 68% 29.97 in 10.0 mi SE 15.0 mph 23.0 mph 0.00 in Rain Light Rain
4:53 PM 69.1 °F 62.1 °F 78% 29.96 in 10.0 mi SE 9.2 mph - 0.00 in Rain Light Rain
5:53 PM 69.1 °F 62.1 °F 78% 29.94 in 10.0 mi East 6.9 mph - 0.00 in   Overcast
6:53 PM 70.0 °F 60.1 °F 71% 29.93 in 10.0 mi SE 10.4 mph - N/A   Overcast
7:53 PM 71.1 °F 59.0 °F 66% 29.95 in 9.0 mi South 10.4 mph - 0.01 in Rain Light Rain
8:53 PM 66.9 °F 62.1 °F 84% 29.93 in 9.0 mi ESE 5.8 mph - 0.01 in   Overcast
9:53 PM 69.1 °F 60.1 °F 73% 29.92 in 10.0 mi SSE 8.1 mph 18.4 mph N/A   Mostly Cloudy
10:53 PM 70.0 °F 60.1 °F 71% 29.92 in 10.0 mi South 11.5 mph 20.7 mph 0.00 in Rain Light Rain
11:53 PM 66.9 °F 63.0 °F 87% 29.88 in 7.0 mi SE 15.0 mph 21.9 mph 0.07 in Rain Light Rain